KF0ZH Weather Reports


Display with metric or nautical units.
time (UTC)temp
F
wind
direction
speed
MPH
gust
MPH
rain 1hr
in
rain 24hr
in
rain mn
in
humidity
%
barometer
mb
20260831085008 73 171 0.0 0.0 0.00 0.00 0.00 99 1005.4
20260831083508 73 220 0.0 4.0 0.00 0.00 0.00 99 1005.4
20260831083008 73 195 0.0 5.0 0.00 0.00 0.00 99 1005.3
20260831082008 74 149 0.0 0.0 0.00 0.00 0.00 99 1005.3
20260831081508 74 149 0.0 0.0 0.00 0.00 0.00 99 1005.1
20260831081008 74 149 0.0 8.0 0.00 0.00 0.00 99 1005.1
20260831080508 74 180 3.0 6.0 0.00 0.00 0.00 99 1005.1
20260831080009 74 180 0.0 5.0 0.00 0.00 0.00 99 1005.1
20260831075508 74 184 0.0 5.0 0.00 0.00 0.00 99 1005.1
20260831075008 74 210 5.0 6.0 0.00 0.00 0.00 99 1005.3
20260831074508 74 165 0.0 0.0 0.00 0.00 0.00 99 1005.2
20260831074008 74 165 0.0 5.0 0.00 0.00 0.00 99 1005.2
20260831073508 74 172 0.0 0.0 0.00 0.00 0.00 99 1005.2
20260831073010 74 172 0.0 0.0 0.00 0.00 0.00 99 1005.2
20260831072008 73 172 0.0 0.0 0.00 0.00 0.00 99 1005.1
20260831071009 74 172 0.0 4.0 0.00 0.00 0.00 99 1005.3
20260831070510 73 198 0.0 0.0 0.00 0.00 0.00 98 1005.2
20260831070014 73 198 0.0 2.0 0.00 0.00 0.00 98 1005.4
20260831065008 73 123 0.0 5.0 0.00 0.00 0.00 98 1005.5
20260831064707 73 132 0.0 3.0 0.00 0.00 0.00 97 1005.5
20260831064508 73 132 0.0 3.0 0.00 0.00 0.00 97 1005.5
20260831063508 73 194 0.0 0.0 0.00 0.00 0.00 97 1005.7
20260831063008 74 194 0.0 0.0 0.00 0.00 0.00 96 1005.7
20260831062508 74 194 0.0 0.0 0.00 0.00 0.00 96 1005.7
20260831062011 74 194 0.0 0.0 0.00 0.00 0.00 96 1005.9
20260831061518 74 194 0.0 2.0 0.00 0.00 0.00 96 1005.9
20260831060512 74 194 0.0 0.0 0.00 0.00 0.00 96 1005.9
20260831060009 74 194 0.0 0.0 0.00 0.00 0.00 95 1006.0
20260831055508 74 194 0.0 3.0 0.00 0.00 0.00 96 1006.1
20260831055008 74 161 3.0 9.0 0.00 0.00 0.00 96 1006.2
20260831054510 74 177 0.0 7.0 0.00 0.00 0.00 95 1006.1
20260831053508 74 160 0.0 7.0 0.00 0.00 0.00 95 1006.2
20260831053008 74 98 0.0 0.0 0.00 0.00 0.00 95 1006.2
20260831052646 74 98 0.0 5.0 0.00 0.00 0.00 95 1006.3
20260831052510 74 98 0.0 5.0 0.00 0.00 0.00 95 1006.3
20260831052008 74 137 0.0 0.0 0.00 0.00 0.00 94 1006.4
20260831051508 75 137 0.0 5.0 0.00 0.00 0.00 95 1006.5
20260831051008 75 153 0.0 3.0 0.00 0.00 0.00 94 1006.5
20260831050508 75 144 0.0 3.0 0.00 0.00 0.00 94 1006.6
20260831050010 75 243 0.0 0.0 0.00 0.00 0.00 94 1006.7
20260831045508 75 243 0.0 4.0 0.00 0.00 0.00 94 1006.7
20260831045039 75 178 3.0 4.0 0.00 0.00 0.00 94 1006.7
20260831045008 75 178 3.0 4.0 0.00 0.00 0.00 94 1006.7
20260831044508 75 130 0.0 6.0 0.00 0.00 0.00 94 1006.7
20260831043511 75 144 0.0 7.0 0.00 0.00 0.00 94 1006.7
20260831043008 75 109 0.0 5.0 0.00 0.00 0.00 93 1006.7
20260831042008 75 191 0.0 6.0 0.00 0.00 0.00 93 1006.7
20260831041508 75 181 0.0 6.0 0.00 0.00 0.00 93 1006.7
20260831040508 75 154 3.0 7.0 0.00 0.00 0.00 93 1006.7
20260831040012 75 142 5.0 8.0 0.00 0.00 0.00 93 1006.7
20260831035508 75 153 7.0 10.0 0.00 0.00 0.00 93 1006.6
20260831035008 75 142 3.0 11.0 0.00 0.00 0.00 92 1006.6
20260831034508 76 202 3.0 11.0 0.00 0.00 0.00 92 1006.6
20260831033508 76 94 3.0 12.0 0.00 0.00 0.00 92 1006.5
20260831033008 76 147 4.0 11.0 0.00 0.00 0.00 92 1006.4
20260831032508 76 174 9.0 9.0 0.00 0.00 0.00 91 1006.6
20260831032008 76 178 4.0 11.0 0.00 0.00 0.00 91 1006.5
20260831031508 76 208 6.0 9.0 0.00 0.00 0.00 91 1006.5
20260831030508 76 199 8.0 13.0 0.00 0.00 0.00 90 1006.4
20260831030009 76 168 4.0 14.0 0.00 0.00 0.00 89 1006.4
20260831025508 76 182 7.0 12.0 0.00 0.00 0.00 89 1006.2
20260831024508 77 118 0.0 10.0 0.00 0.00 0.00 88 1006.2
20260831023508 77 196 6.0 12.0 0.00 0.00 0.00 87 1006.3
20260831022508 77 175 6.0 12.0 0.00 0.00 0.00 86 1006.3
20260831022013 77 170 4.0 15.0 0.00 0.00 0.00 86 1006.4
20260831021512 78 174 7.0 10.0 0.00 0.00 0.00 85 1006.4
20260831020019 78 119 3.0 7.0 0.00 0.00 0.00 84 1006.6
20260831015508 78 175 5.0 11.0 0.00 0.00 0.00 84 1006.6
20260831015009 79 151 3.0 13.0 0.00 0.00 0.00 84 1006.6
20260831014513 79 90 0.0 13.0 0.00 0.00 0.00 83 1006.5
20260831013511 79 184 3.0 12.0 0.00 0.00 0.00 82 1006.7
20260831013009 79 171 5.0 8.0 0.00 0.00 0.00 81 1006.6
20260831012510 79 181 7.0 8.0 0.00 0.00 0.00 80 1006.4
20260831012013 80 175 6.0 10.0 0.00 0.00 0.00 80 1006.4
20260831010508 81 177 7.0 13.0 0.00 0.00 0.00 76 1006.2
20260831010011 81 161 9.0 10.0 0.00 0.00 0.00 75 1006.1
20260831005509 81 215 8.0 17.0 0.00 0.00 0.00 74 1005.9
20260831004508 82 154 11.0 12.0 0.00 0.00 0.00 72 1005.7
20260831003509 82 196 7.0 7.0 0.00 0.00 0.00 72 1005.8
20260831003009 83 161 6.0 7.0 0.00 0.00 0.00 72 1005.9
20260831002508 83 191 5.0 7.0 0.00 0.00 0.00 72 1005.7
20260831001513 83 225 2.0 7.0 0.00 0.00 0.00 72 1005.6
20260831001008 83 237 1.0 9.0 0.00 0.00 0.00 71 1005.4
20260831000508 83 164 0.0 6.0 0.00 0.00 0.00 72 1005.4
20260831000018 84 137 0.0 7.0 0.00 0.00 0.00 71 1005.4
20260830235508 84 196 3.0 7.0 0.00 0.00 0.00 71 1005.4
20260830235010 84 188 0.0 7.0 0.00 0.00 0.00 71 1005.4
20260830233508 85 122 4.0 6.0 0.00 0.00 0.00 70 1005.3
20260830233008 85 125 0.0 12.0 0.00 0.00 0.00 70 1005.4
20260830232508 84 177 4.0 11.0 0.00 0.00 0.00 70 1005.4
20260830232008 85 153 9.0 9.0 0.00 0.00 0.00 71 1005.5
20260830231508 85 130 5.0 10.0 0.00 0.00 0.00 70 1005.5
20260830230508 85 185 5.0 8.0 0.00 0.00 0.00 70 1005.4
20260830230009 85 160 3.0 7.0 0.00 0.00 0.00 70 1005.5
20260830225508 85 125 1.0 6.0 0.00 0.00 0.00 69 1005.5
20260830224508 86 180 6.0 11.0 0.00 0.00 0.00 69 1005.3
20260830224008 86 101 0.0 15.0 0.00 0.00 0.00 70 1005.2
20260830223008 86 98 0.0 5.0 0.00 0.00 0.00 69 1004.9
20260830222008 86 32 0.0 3.0 0.00 0.00 0.00 70 1005.0
20260830221511 86 158 0.0 7.0 0.00 0.00 0.00 70 1005.1
20260830221008 87 147 0.0 8.0 0.00 0.00 0.00 68 1005.1
20260830220510 87 120 0.0 4.0 0.00 0.00 0.00 70 1005.1
20260830220009 87 94 0.0 7.0 0.00 0.00 0.00 69 1005.3
20260830215508 87 194 0.0 7.0 0.00 0.00 0.00 70 1005.1
20260830215008 86 18 2.0 11.0 0.00 0.00 0.00 70 1005.2
20260830214510 86 67 0.0 11.0 0.00 0.00 0.00 71 1005.2
20260830213508 86 139 0.0 5.0 0.00 0.00 0.00 72 1005.3
20260830213009 86 85 0.0 9.0 0.00 0.00 0.00 73 1005.2
20260830212509 86 192 0.0 5.0 0.00 0.00 0.00 72 1005.3
20260830212008 85 115 0.0 8.0 0.00 0.00 0.00 73 1005.4
20260830211508 85 84 3.0 10.0 0.00 0.00 0.00 73 1005.4
20260830210508 84 90 9.0 11.0 0.00 0.00 0.00 74 1005.5
20260830210016 84 50 5.0 11.0 0.00 0.00 0.00 74 1005.6
20260830205508 85 47 2.0 8.0 0.00 0.00 0.00 72 1005.7
20260830205008 85 37 0.0 7.0 0.00 0.00 0.00 73 1005.7
20260830204508 85 42 5.0 8.0 0.00 0.00 0.00 73 1005.7
20260830204010 84 130 0.0 5.0 0.00 0.00 0.00 74 1005.8
20260830203508 84 94 5.0 10.0 0.00 0.00 0.00 74 1005.8
20260830203019 84 14 10.0 10.0 0.00 0.00 0.00 74 1006.0
20260830202008 84 82 0.0 9.0 0.00 0.00 0.00 75 1006.0
20260830201508 84 45 8.0 12.0 0.00 0.00 0.00 74 1006.0
20260830201008 84 32 5.0 8.0 0.00 0.00 0.00 75 1006.2
20260830200508 84 111 5.0 11.0 0.00 0.00 0.00 75 1006.2
20260830200009 83 25 9.0 9.0 0.00 0.00 0.00 74 1006.1
20260830195509 83 157 0.0 8.0 0.00 0.00 0.00 76 1006.0
20260830195008 83 95 0.0 8.0 0.00 0.00 0.00 75 1006.0
20260830194508 83 156 2.0 8.0 0.00 0.00 0.00 75 1006.1
20260830193508 83 118 0.0 10.0 0.00 0.00 0.00 76 1006.2
20260830193008 83 115 1.0 9.0 0.00 0.00 0.00 76 1006.2
20260830192508 82 144 7.0 12.0 0.00 0.00 0.00 76 1006.3
20260830192009 82 64 3.0 10.0 0.00 0.00 0.00 77 1006.1
20260830191508 82 39 7.0 14.0 0.00 0.00 0.00 77 1006.0
20260830190508 82 95 8.0 12.0 0.00 0.00 0.00 77 1006.3
20260830190009 82 28 7.0 10.0 0.00 0.00 0.00 77 1006.2
20260830185508 82 15 0.0 8.0 0.00 0.00 0.00 77 1006.4
20260830185008 81 60 3.0 12.0 0.00 0.00 0.00 78 1006.3
20260830184508 81 160 4.0 12.0 0.00 0.00 0.00 78 1006.4
20260830184008 81 29 4.0 11.0 0.00 0.00 0.00 77 1006.4
20260830183508 81 75 0.0 9.0 0.00 0.00 0.00 78 1006.5
20260830183008 81 71 7.0 12.0 0.00 0.00 0.00 78 1006.8
20260830182508 81 5 0.0 4.0 0.00 0.00 0.00 80 1007.1
20260830182012 81 54 0.0 8.0 0.00 0.00 0.00 79 1007.0
20260830181508 81 156 0.0 3.0 0.00 0.00 0.00 80 1007.1
20260830181008 81 180 3.0 9.0 0.00 0.00 0.00 81 1006.9
20260830180508 80 219 0.0 10.0 0.00 0.00 0.00 82 1006.9
20260830180009 80 73 5.0 10.0 0.00 0.00 0.00 82 1006.8
20260830175514 80 80 5.0 8.0 0.00 0.00 0.00 81 1007.0
20260830175008 80 109 5.0 7.0 0.00 0.00 0.00 83 1007.1
20260830174508 79 136 0.0 10.0 0.00 0.00 0.00 84 1007.1
20260830174008 79 111 5.0 10.0 0.00 0.00 0.00 84 1007.2
20260830173508 79 358 4.0 11.0 0.00 0.00 0.00 83 1007.5
20260830173008 79 43 0.0 10.0 0.00 0.00 0.00 84 1007.4
20260830172508 79 68 0.0 10.0 0.00 0.00 0.00 84 1007.5
20260830172008 79 116 3.0 8.0 0.00 0.00 0.00 84 1007.7
20260830171508 79 60 0.0 8.0 0.00 0.00 0.00 84 1007.9
20260830170508 78 54 0.0 2.0 0.00 0.00 0.00 86 1007.7
20260830170009 77 54 0.0 8.0 0.00 0.00 0.00 86 1007.5
20260830165543 77 189 3.0 8.0 0.00 0.00 0.00 86 1007.4
20260830165508 77 189 3.0 8.0 0.00 0.00 0.00 86 1007.4
20260830164509 77 101 6.0 9.0 0.00 0.00 0.00 86 1007.6
20260830163509 77 46 4.0 9.0 0.00 0.00 0.00 87 1007.6
20260830163013 76 43 0.0 9.0 0.00 0.00 0.00 88 1007.4
20260830162508 76 52 5.0 10.0 0.00 0.00 0.00 88 1007.4
20260830162216 76 68 3.0 10.0 0.00 0.00 0.00 89 1007.2
20260830162041 76 68 3.0 10.0 0.00 0.00 0.00 89 1007.2
20260830162008 76 68 3.0 10.0 0.00 0.00 0.00 89 1007.2
20260830161508 76 21 6.0 10.0 0.00 0.00 0.00 88 1007.1
20260830160508 76 43 7.0 11.0 0.00 0.00 0.00 89 1006.9
20260830155508 76 43 2.0 11.0 0.00 0.00 0.00 89 1006.8
20260830155008 76 102 3.0 13.0 0.00 0.00 0.00 90 1006.7
20260830154508 75 118 0.0 8.0 0.00 0.00 0.00 90 1006.5
20260830153630 75 71 8.0 10.0 0.00 0.00 0.00 91 1006.9
20260830153508 75 71 8.0 10.0 0.00 0.00 0.00 91 1006.9
20260830153008 74 49 7.0 7.0 0.00 0.00 0.00 92 1006.9
20260830152508 74 12 5.0 8.0 0.00 0.00 0.00 93 1007.0
20260830152008 74 11 8.0 8.0 0.00 0.00 0.00 93 1007.1
20260830150508 74 102 4.0 8.0 0.00 0.00 0.00 93 1007.1
20260830150009 74 25 6.0 8.0 0.00 0.00 0.00 93 1007.3
20260830145508 73 2 2.0 7.0 0.00 0.00 0.00 94 1007.1
20260830145124 73 88 4.0 8.0 0.00 0.00 0.00 95 1007.2
20260830145008 73 88 4.0 8.0 0.00 0.00 0.00 95 1007.2
20260830144508 73 156 1.0 6.0 0.00 0.00 0.00 98 1007.0
20260830143508 72 54 3.0 7.0 0.00 0.00 0.00 98 1006.9
20260830143008 72 45 4.0 8.0 0.00 0.00 0.00 98 1006.9
20260830142510 71 50 4.0 6.0 0.00 0.00 0.00 99 1006.8
20260830142008 71 59 4.0 7.0 0.00 0.00 0.00 99 1007.0
20260830141508 71 78 6.0 9.0 0.00 0.00 0.00 99 1007.0
20260830140513 71 42 0.0 8.0 0.00 0.00 0.00 99 1007.2
20260830140014 71 47 4.0 8.0 0.00 0.00 0.00 99 1007.4
20260830135508 71 68 0.0 4.0 0.00 0.00 0.00 99 1007.4
20260830134508 71 73 0.0 5.0 0.00 0.00 0.00 99 1007.7
20260830133508 70 95 0.0 5.0 0.00 0.00 0.00 99 1007.5
20260830133008 70 95 0.0 3.0 0.00 0.00 0.00 99 1007.4
20260830132508 70 74 0.0 5.0 0.00 0.00 0.00 99 1007.5
20260830132049 69 75 3.0 4.0 0.00 0.00 0.00 99 1007.3
20260830132008 69 75 3.0 4.0 0.00 0.00 0.00 99 1007.3
20260830131007 69 25 1.0 3.0 0.00 0.00 0.00 99 1007.0
20260830130509 69 77 0.0 5.0 0.00 0.00 0.00 99 1007.2
20260830130009 69 92 5.0 5.0 0.00 0.00 0.00 99 1007.2
20260830125555 69 39 0.0 6.0 0.00 0.00 0.00 99 1007.1
20260830125508 69 39 0.0 6.0 0.00 0.00 0.00 99 1007.1
20260830125008 69 57 5.0 6.0 0.00 0.00 0.00 99 1007.1
20260830124507 69 42 3.0 5.0 0.00 0.00 0.00 99 1007.0
20260830123509 69 63 0.0 4.0 0.00 0.00 0.00 99 1007.1
20260830123008 69 99 0.0 0.0 0.00 0.00 0.00 99 1007.1
20260830122717 69 99 0.0 0.0 0.00 0.00 0.00 99 1007.0
20260830122606 69 99 0.0 0.0 0.00 0.00 0.00 99 1007.0
20260830122507 69 99 0.0 0.0 0.00 0.00 0.00 99 1007.0
20260830121544 68 66 0.0 3.0 0.00 0.00 0.00 99 1006.9
20260830121508 68 66 0.0 3.0 0.00 0.00 0.00 99 1006.9
20260830121129 68 98 3.0 4.0 0.00 0.00 0.00 99 1007.1
20260830121056 68 98 3.0 4.0 0.00 0.00 0.00 99 1007.1
20260830121008 68 98 3.0 4.0 0.00 0.00 0.00 99 1007.1
20260830120507 68 61 0.0 5.0 0.00 0.00 0.00 99 1007.0
20260830120052 68 45 2.0 5.0 0.00 0.00 0.00 99 1006.8
20260830120009 68 45 2.0 5.0 0.00 0.00 0.00 99 1006.8
20260830115600 68 68 0.0 4.0 0.00 0.00 0.00 99 1006.8
20260830115507 68 68 0.0 4.0 0.00 0.00 0.00 99 1006.8
20260830115101 68 66 0.0 2.0 0.00 0.00 0.00 99 1006.9
20260830115007 68 66 0.0 2.0 0.00 0.00 0.00 99 1006.9
20260830114508 68 78 0.0 3.0 0.00 0.00 0.00 99 1006.9
20260830114128 68 78 0.0 0.0 0.00 0.00 0.00 99 1006.8
20260830114039 68 78 0.0 0.0 0.00 0.00 0.00 99 1006.8
20260830114007 68 78 0.0 0.0 0.00 0.00 0.00 99 1006.8
20260830113507 68 78 0.0 0.0 0.00 0.00 0.00 99 1006.9
20260830113007 68 78 0.0 0.0 0.00 0.00 0.00 99 1006.8
20260830112507 68 78 0.0 0.0 0.00 0.00 0.00 99 1006.7
20260830111508 68 78 0.0 0.0 0.00 0.00 0.00 99 1006.8
20260830111007 68 78 0.0 0.0 0.00 0.00 0.00 99 1006.8
20260830110507 68 78 0.0 0.0 0.00 0.00 0.00 99 1006.9
20260830105507 69 78 0.0 0.0 0.00 0.00 0.00 99 1007.1
20260830105007 68 78 0.0 0.0 0.00 0.00 0.00 99 1007.0
20260830104507 68 78 0.0 0.0 0.00 0.00 0.00 99 1007.1
20260830103604 69 78 0.0 0.0 0.00 0.00 0.00 99 1007.1
20260830103507 69 78 0.0 0.0 0.00 0.00 0.00 99 1007.1
20260830103007 68 78 0.0 0.0 0.00 0.00 0.00 99 1007.0
20260830102540 69 78 0.0 0.0 0.00 0.00 0.00 99 1007.0
20260830102507 69 78 0.0 0.0 0.00 0.00 0.00 99 1007.0
20260830101507 69 78 0.0 0.0 0.00 0.00 0.00 99 1007.1
20260830100008 69 78 0.0 0.0 0.00 0.00 0.00 99 1007.3
20260830095507 69 78 0.0 0.0 0.00 0.16 0.00 99 1007.1
20260830095007 69 78 0.0 0.0 0.00 0.16 0.00 99 1006.9
20260830094507 69 78 0.0 0.0 0.00 0.16 0.00 99 1006.9
20260830094007 69 78 0.0 0.0 0.00 0.16 0.00 99 1006.9
20260830093507 69 78 0.0 0.0 0.00 0.16 0.00 99 1006.7
20260830093007 69 78 0.0 0.0 0.00 0.16 0.00 99 1006.7
20260830092507 69 78 0.0 5.0 0.00 0.16 0.00 99 1006.8
20260830091007 69 82 4.0 6.0 0.00 0.16 0.00 99 1006.9
20260830090507 69 47 0.0 6.0 0.00 0.16 0.00 99 1007.0
20260830090010 69 53 0.0 4.0 0.00 0.16 0.00 99 1006.9
20260830085542 70 25 0.0 0.0 0.00 0.20 0.00 98 1006.9
20260830085508 70 25 0.0 0.0 0.00 0.20 0.00 98 1006.9